Location: Strawberry
(45.6646°N, 111.9596°W)
Time: 21:09:45
(UTC+00:00)

RS-15 - Pass Details

Date: 03 December 2022
Orbit: 1883 x 2162 km, 64.8° (Epoch: 08 February)

Event Time Altitude Azimuth Distance (km) Brightness Sun altitude
Rises 02:29:59 0° 316° (NW) 5,694 11.0 -28.1°
Reaches altitude 10° 02:33:44 10° 322° (NW) 4,678 10.4 -28.7°
Maximum altitude 02:45:36 50° 37° (NE) 2,546 8.3 -30.8°
Enters shadow 02:47:18 48° 59° (ENE) 2,596 8.2 -31.1°
